Time,TemperatureF,DewpointF,PressureIn,WindDirection,WindDirectionDegrees,WindSpeedMPH,WindSpeedGustMPH,Humidity,HourlyPrecipIn,Conditions,Clouds,dailyrainin,SoftwareType,DateUTC
2013-03-08 00:05:00,46.2,32.7,30.19,NNE,29,1.0,1.0,59,0.00,,,0.00,Wunderground v.1.15,2013-03-08 05:05:00,
2013-03-08 00:15:00,45.8,32.3,30.19,NNE,33,1.0,1.0,59,0.00,,,0.00,Wunderground v.1.15,2013-03-08 05:15:00,
2013-03-08 00:20:00,45.6,32.5,30.19,NE,34,0.0,0.0,60,0.00,,,0.00,Wunderground v.1.15,2013-03-08 05:20:00,
2013-03-08 00:25:00,45.5,32.4,30.19,NNE,21,0.0,0.0,60,0.00,,,0.00,Wunderground v.1.15,2013-03-08 05:25:00,
2013-03-08 00:35:00,45.1,32.0,30.19,NNE,21,2.0,7.0,60,0.00,,,0.00,Wunderground v.1.15,2013-03-08 05:35:00,
2013-03-08 00:45:00,44.8,32.2,30.19,NNE,13,0.0,1.0,61,0.00,,,0.00,Wunderground v.1.15,2013-03-08 05:45:00,
2013-03-08 00:50:00,44.6,32.4,30.19,North,360,0.0,0.0,62,0.00,,,0.00,Wunderground v.1.15,2013-03-08 05:50:00,
2013-03-08 00:55:00,44.4,32.2,30.19,North,360,0.0,2.0,62,0.00,,,0.00,Wunderground v.1.15,2013-03-08 05:55:00,
2013-03-08 01:05:00,43.9,32.1,30.19,NNE,19,0.0,0.0,63,0.00,,,0.00,Wunderground v.1.15,2013-03-08 06:05:00,
2013-03-08 01:15:00,43.4,32.4,30.19,North,360,1.0,1.0,65,0.00,,,0.00,Wunderground v.1.15,2013-03-08 06:15:00,
2013-03-08 01:24:00,43.2,32.2,30.20,North,355,2.0,2.0,65,0.00,,,0.00,Wunderground v.1.15,2013-03-08 06:24:00,
2013-03-08 01:30:00,43.0,32.0,30.20,NNW,337,2.0,4.0,65,0.00,,,0.00,Wunderground v.1.15,2013-03-08 06:30:00,
2013-03-08 01:40:00,42.8,32.2,30.20,North,355,2.0,2.0,66,0.00,,,0.00,Wunderground v.1.15,2013-03-08 06:40:00,
2013-03-08 01:50:00,42.7,31.7,30.20,North,11,2.0,2.0,65,0.00,,,0.00,Wunderground v.1.15,2013-03-08 06:50:00,
2013-03-08 02:00:00,42.5,31.6,30.20,NNE,21,2.0,2.0,65,0.00,,,0.00,Wunderground v.1.15,2013-03-08 07:00:00,
2013-03-08 02:10:00,42.3,31.4,30.20,NNW,348,3.0,3.0,65,0.00,,,0.00,Wunderground v.1.15,2013-03-08 07:10:00,
2013-03-08 02:20:00,42.1,31.2,30.20,NNE,12,2.0,4.0,65,0.00,,,0.00,Wunderground v.1.15,2013-03-08 07:20:00,
2013-03-08 02:29:00,41.9,30.6,30.20,NNE,31,2.0,2.0,64,0.00,,,0.00,Wunderground v.1.15,2013-03-08 07:29:00,
2013-03-08 02:35:00,41.8,30.5,30.19,North,355,1.0,2.0,64,0.00,,,0.00,Wunderground v.1.15,2013-03-08 07:35:00,
2013-03-08 02:40:00,41.7,30.0,30.19,NNE,12,2.0,4.0,63,0.00,,,0.00,Wunderground v.1.15,2013-03-08 07:40:00,
2013-03-08 02:50:00,41.6,29.5,30.19,NNE,18,5.0,5.0,62,0.00,,,0.00,Wunderground v.1.15,2013-03-08 07:50:00,
2013-03-08 02:55:00,41.4,29.3,30.19,NNE,30,4.0,5.0,62,0.00,,,0.00,Wunderground v.1.15,2013-03-08 07:55:00,
2013-03-08 03:00:00,41.3,29.3,30.19,North,360,2.0,2.0,62,0.00,,,0.00,Wunderground v.1.15,2013-03-08 08:00:00,
2013-03-08 03:10:00,41.0,29.4,30.19,North,10,1.0,6.0,63,0.00,,,0.00,Wunderground v.1.15,2013-03-08 08:10:00,
2013-03-08 03:20:00,40.7,29.1,30.19,NNE,18,2.0,4.0,63,0.00,,,0.00,Wunderground v.1.15,2013-03-08 08:20:00,
2013-03-08 03:25:00,40.6,29.0,30.19,North,360,3.0,4.0,63,0.00,,,0.00,Wunderground v.1.15,2013-03-08 08:25:00,
2013-03-08 03:35:00,40.4,29.2,30.19,NNE,15,3.0,4.0,64,0.00,,,0.00,Wunderground v.1.15,2013-03-08 08:35:00,
2013-03-08 03:40:00,40.2,29.0,30.19,North,5,1.0,3.0,64,0.00,,,0.00,Wunderground v.1.15,2013-03-08 08:40:00,
2013-03-08 03:50:00,39.9,29.5,30.18,NW,319,0.0,0.0,66,0.00,,,0.00,Wunderground v.1.15,2013-03-08 08:50:00,
2013-03-08 04:00:00,39.7,29.6,30.19,NW,323,0.0,0.0,67,0.00,,,0.00,Wunderground v.1.15,2013-03-08 09:00:00,
2013-03-08 04:10:00,39.3,29.3,30.20,NW,309,0.0,0.0,67,0.00,,,0.00,Wunderground v.1.15,2013-03-08 09:10:00,
2013-03-08 04:20:00,38.9,29.2,30.20,NNE,14,1.0,2.0,68,0.00,,,0.00,Wunderground v.1.15,2013-03-08 09:20:00,
2013-03-08 04:30:00,38.8,29.1,30.20,North,350,1.0,1.0,68,0.00,,,0.00,Wunderground v.1.15,2013-03-08 09:30:00,
2013-03-08 04:40:00,38.6,28.9,30.20,NNW,343,0.0,0.0,68,0.00,,,0.00,Wunderground v.1.15,2013-03-08 09:40:00,
2013-03-08 04:50:00,38.4,28.8,30.21,North,5,1.0,1.0,68,0.00,,,0.00,Wunderground v.1.15,2013-03-08 09:50:00,
2013-03-08 05:00:00,38.3,29.0,30.21,NNW,335,0.0,0.0,69,0.00,,,0.00,Wunderground v.1.15,2013-03-08 10:00:00,
2013-03-08 05:10:00,38.0,28.7,30.21,North,355,1.0,5.0,69,0.00,,,0.00,Wunderground v.1.15,2013-03-08 10:10:00,
2013-03-08 05:19:00,37.9,28.6,30.21,North,5,1.0,1.0,69,0.00,,,0.00,Wunderground v.1.15,2013-03-08 10:19:00,
2013-03-08 05:25:00,37.9,28.6,30.22,NW,318,0.0,1.0,69,0.00,,,0.00,Wunderground v.1.15,2013-03-08 10:25:00,
2013-03-08 05:30:00,37.9,29.0,30.22,NNE,14,0.0,0.0,70,0.00,,,0.00,Wunderground v.1.15,2013-03-08 10:30:00,
2013-03-08 05:40:00,37.6,28.3,30.22,NW,317,1.0,1.0,69,0.00,,,0.00,Wunderground v.1.15,2013-03-08 10:40:00,
2013-03-08 05:45:00,37.5,28.6,30.23,North,9,0.0,1.0,70,0.00,,,0.00,Wunderground v.1.15,2013-03-08 10:45:00,
2013-03-08 05:55:00,37.4,28.9,30.23,NNW,341,0.0,0.0,71,0.00,,,0.00,Wunderground v.1.15,2013-03-08 10:55:00,
2013-03-08 06:05:00,37.1,28.6,30.23,WNW,292,0.0,0.0,71,0.00,,,0.00,Wunderground v.1.15,2013-03-08 11:05:00,
2013-03-08 06:15:00,36.9,28.4,30.23,NNW,344,1.0,2.0,71,0.00,,,0.00,Wunderground v.1.15,2013-03-08 11:15:00,
2013-03-08 06:25:00,36.9,28.4,30.23,North,11,0.0,1.0,71,0.00,,,0.00,Wunderground v.1.15,2013-03-08 11:25:00,
2013-03-08 06:35:00,36.8,28.6,30.22,NNW,339,0.0,0.0,72,0.00,,,0.00,Wunderground v.1.15,2013-03-08 11:35:00,
2013-03-08 06:45:00,36.6,28.4,30.23,North,10,0.0,0.0,72,0.00,,,0.00,Wunderground v.1.15,2013-03-08 11:45:00,
2013-03-08 06:55:00,36.6,28.4,30.23,North,9,1.0,1.0,72,0.00,,,0.00,Wunderground v.1.15,2013-03-08 11:55:00,
2013-03-08 07:05:00,37.1,28.6,30.24,North,5,1.0,3.0,71,0.00,,,0.00,Wunderground v.1.15,2013-03-08 12:05:00,
2013-03-08 07:15:00,37.4,29.2,30.24,NNW,334,0.0,0.0,72,0.00,,,0.00,Wunderground v.1.15,2013-03-08 12:15:00,
2013-03-08 07:25:00,37.9,29.3,30.24,NNW,332,0.0,0.0,71,0.00,,,0.00,Wunderground v.1.15,2013-03-08 12:25:00,
2013-03-08 07:34:00,38.4,29.1,30.24,North,355,0.0,0.0,69,0.00,,,0.00,Wunderground v.1.15,2013-03-08 12:34:00,
2013-03-08 07:40:00,38.7,29.4,30.24,North,5,1.0,4.0,69,0.00,,,0.00,Wunderground v.1.15,2013-03-08 12:40:00,
2013-03-08 07:45:00,39.0,29.0,30.24,North,355,1.0,4.0,67,0.00,,,0.00,Wunderground v.1.15,2013-03-08 12:45:00,
2013-03-08 07:55:00,39.5,29.1,30.25,NNE,19,1.0,3.0,66,0.00,,,0.00,Wunderground v.1.15,2013-03-08 12:55:00,
2013-03-08 08:05:00,40.2,29.0,30.25,NNE,12,2.0,5.0,64,0.00,,,0.00,Wunderground v.1.15,2013-03-08 13:05:00,
2013-03-08 08:10:00,40.6,29.0,30.25,NW,310,4.0,4.0,63,0.00,,,0.00,Wunderground v.1.15,2013-03-08 13:10:00,
2013-03-08 08:20:00,41.3,29.3,30.26,North,9,2.0,2.0,62,0.00,,,0.00,Wunderground v.1.15,2013-03-08 13:20:00,
2013-03-08 08:29:00,41.8,28.9,30.26,North,355,4.0,5.0,60,0.00,,,0.00,Wunderground v.1.15,2013-03-08 13:29:00,
2013-03-08 08:35:00,41.9,29.0,30.25,North,5,7.0,7.0,60,0.00,,,0.00,Wunderground v.1.15,2013-03-08 13:35:00,
2013-03-08 08:40:00,42.3,29.0,30.25,NNE,18,6.0,6.0,59,0.00,,,0.00,Wunderground v.1.15,2013-03-08 13:40:00,
2013-03-08 08:50:00,43.1,29.3,30.26,NE,48,4.0,5.0,58,0.00,,,0.00,Wunderground v.1.15,2013-03-08 13:50:00,
2013-03-08 09:00:00,43.7,29.0,30.25,NNW,338,3.0,10.0,56,0.00,,,0.00,Wunderground v.1.15,2013-03-08 14:00:00,
2013-03-08 09:10:00,44.2,29.5,30.26,NNE,17,5.0,5.0,56,0.00,,,0.00,Wunderground v.1.15,2013-03-08 14:10:00,
2013-03-08 09:15:00,44.6,29.4,30.25,NNE,24,4.0,6.0,55,0.00,,,0.00,Wunderground v.1.15,2013-03-08 14:15:00,
2013-03-08 09:25:00,45.2,29.5,30.25,NNE,14,4.0,5.0,54,0.00,,,0.00,Wunderground v.1.15,2013-03-08 14:25:00,
2013-03-08 09:30:00,45.3,29.2,30.25,NE,51,4.0,4.0,53,0.00,,,0.00,Wunderground v.1.15,2013-03-08 14:30:00,
2013-03-08 09:40:00,46.1,29.4,30.25,NNW,333,3.0,5.0,52,0.00,,,0.00,Wunderground v.1.15,2013-03-08 14:40:00,
2013-03-08 09:45:00,46.5,29.3,30.25,NNE,17,4.0,5.0,51,0.00,,,0.00,Wunderground v.1.15,2013-03-08 14:45:00,
2013-03-08 09:55:00,46.6,28.4,30.25,North,11,5.0,7.0,49,0.00,,,0.00,Wunderground v.1.15,2013-03-08 14:55:00,
2013-03-08 10:05:00,47.1,27.9,30.25,NNE,19,7.0,10.0,47,0.00,,,0.00,Wunderground v.1.15,2013-03-08 15:05:00,
2013-03-08 10:15:00,47.9,28.1,30.25,North,5,4.0,9.0,46,0.00,,,0.00,Wunderground v.1.15,2013-03-08 15:15:00,
2013-03-08 10:20:00,47.9,28.1,30.25,NNE,15,6.0,11.0,46,0.00,,,0.00,Wunderground v.1.15,2013-03-08 15:20:00,
2013-03-08 10:30:00,48.5,27.6,30.24,NNE,30,3.0,6.0,44,0.00,,,0.00,Wunderground v.1.15,2013-03-08 15:30:00,
2013-03-08 10:40:00,48.5,27.0,30.24,NE,36,5.0,5.0,43,0.00,,,0.00,Wunderground v.1.15,2013-03-08 15:40:00,
2013-03-08 10:45:00,49.1,28.7,30.24,NW,314,4.0,5.0,45,0.00,,,0.00,Wunderground v.1.15,2013-03-08 15:45:00,
2013-03-08 10:55:00,50.0,27.2,30.23,NE,40,4.0,4.0,41,0.00,,,0.00,Wunderground v.1.15,2013-03-08 15:55:00,
2013-03-08 11:05:00,49.6,28.0,30.22,North,5,4.0,5.0,43,0.00,,,0.00,Wunderground v.1.15,2013-03-08 16:05:00,
2013-03-08 11:15:00,49.5,27.9,30.22,West,272,5.0,6.0,43,0.00,,,0.00,Wunderground v.1.15,2013-03-08 16:15:00,
2013-03-08 11:20:00,50.1,29.0,30.21,NNW,333,6.0,6.0,44,0.00,,,0.00,Wunderground v.1.15,2013-03-08 16:20:00,
2013-03-08 11:30:00,50.2,28.0,30.21,NW,324,5.0,5.0,42,0.00,,,0.00,Wunderground v.1.15,2013-03-08 16:30:00,
2013-03-08 11:40:00,50.6,27.1,30.20,NW,304,4.0,11.0,40,0.00,,,0.00,Wunderground v.1.15,2013-03-08 16:40:00,
2013-03-08 11:50:00,50.9,27.4,30.20,NW,312,5.0,7.0,40,0.00,,,0.00,Wunderground v.1.15,2013-03-08 16:50:00,
2013-03-08 12:00:00,50.8,27.9,30.20,West,273,7.0,7.0,41,0.00,,,0.00,Wunderground v.1.15,2013-03-08 17:00:00,
2013-03-08 12:10:00,51.2,26.4,30.20,NW,323,7.0,7.0,38,0.00,,,0.00,Wunderground v.1.15,2013-03-08 17:10:00,
2013-03-08 12:19:00,51.6,28.0,30.19,NE,46,7.0,7.0,40,0.00,,,0.00,Wunderground v.1.15,2013-03-08 17:19:00,
2013-03-08 12:25:00,52.0,27.1,30.19,West,267,7.0,8.0,38,0.00,,,0.00,Wunderground v.1.15,2013-03-08 17:25:00,
2013-03-08 12:30:00,51.9,27.7,30.19,NW,309,8.0,8.0,39,0.00,,,0.00,Wunderground v.1.15,2013-03-08 17:30:00,
2013-03-08 12:40:00,53.0,26.7,30.19,NW,304,7.0,9.0,36,0.00,,,0.00,Wunderground v.1.15,2013-03-08 17:40:00,
2013-03-08 12:45:00,52.5,26.3,30.18,WNW,286,8.0,9.0,36,0.00,,,0.00,Wunderground v.1.15,2013-03-08 17:45:00,
2013-03-08 12:55:00,53.1,27.5,30.17,WNW,290,7.0,9.0,37,0.00,,,0.00,Wunderground v.1.15,2013-03-08 17:55:00,
2013-03-08 13:05:00,53.5,27.2,30.17,NW,311,5.0,7.0,36,0.00,,,0.00,Wunderground v.1.15,2013-03-08 18:05:00,
2013-03-08 13:10:00,54.1,27.7,30.16,NNE,14,5.0,5.0,36,0.00,,,0.00,Wunderground v.1.15,2013-03-08 18:10:00,
2013-03-08 13:20:00,53.7,27.4,30.16,NNW,340,7.0,7.0,36,0.00,,,0.00,Wunderground v.1.15,2013-03-08 18:20:00,
2013-03-08 13:30:00,54.4,27.3,30.15,WNW,297,7.0,14.0,35,0.00,,,0.00,Wunderground v.1.15,2013-03-08 18:30:00,
2013-03-08 13:40:00,55.1,27.9,30.15,NW,309,6.0,6.0,35,0.00,,,0.00,Wunderground v.1.15,2013-03-08 18:40:00,
2013-03-08 13:50:00,55.3,27.4,30.15,NE,35,5.0,9.0,34,0.00,,,0.00,Wunderground v.1.15,2013-03-08 18:50:00,
2013-03-08 14:00:00,55.2,28.0,30.15,NW,308,6.0,6.0,35,0.00,,,0.00,Wunderground v.1.15,2013-03-08 19:00:00,
2013-03-08 14:10:00,55.6,26.9,30.14,North,360,6.0,6.0,33,0.00,,,0.00,Wunderground v.1.15,2013-03-08 19:10:00,
2013-03-08 14:19:00,55.8,27.8,30.14,WNW,294,5.0,5.0,34,0.00,,,0.00,Wunderground v.1.15,2013-03-08 19:19:00,
2013-03-08 14:25:00,55.9,26.4,30.14,WNW,298,6.0,6.0,32,0.00,,,0.00,Wunderground v.1.15,2013-03-08 19:25:00,
2013-03-08 14:35:00,55.9,27.2,30.14,NW,304,7.0,7.0,33,0.00,,,0.00,Wunderground v.1.15,2013-03-08 19:35:00,
2013-03-08 14:45:00,56.4,28.3,30.14,WNW,286,8.0,10.0,34,0.00,,,0.00,Wunderground v.1.15,2013-03-08 19:45:00,
2013-03-08 14:55:00,55.9,27.9,30.14,WNW,294,8.0,9.0,34,0.00,,,0.00,Wunderground v.1.15,2013-03-08 19:55:00,
2013-03-08 15:05:00,55.9,27.2,30.14,NW,313,10.0,11.0,33,0.00,,,0.00,Wunderground v.1.15,2013-03-08 20:05:00,
2013-03-08 15:15:00,56.5,26.2,30.15,NW,307,7.0,9.0,31,0.00,,,0.00,Wunderground v.1.15,2013-03-08 20:15:00,
2013-03-08 15:25:00,56.5,27.0,30.14,NNW,327,8.0,8.0,32,0.00,,,0.00,Wunderground v.1.15,2013-03-08 20:25:00,
2013-03-08 15:35:00,57.0,27.4,30.14,NW,323,5.0,7.0,32,0.00,,,0.00,Wunderground v.1.15,2013-03-08 20:35:00,
2013-03-08 15:40:00,57.3,26.1,30.14,North,5,4.0,4.0,30,0.00,,,0.00,Wunderground v.1.15,2013-03-08 20:40:00,
2013-03-08 15:49:00,57.1,26.7,30.14,North,355,4.0,6.0,31,0.00,,,0.00,Wunderground v.1.15,2013-03-08 20:49:00,
2013-03-08 15:55:00,57.3,26.1,30.13,North,355,4.0,6.0,30,0.00,,,0.00,Wunderground v.1.15,2013-03-08 20:55:00,
2013-03-08 16:05:00,57.6,26.4,30.14,NNE,23,3.0,11.0,30,0.00,,,0.00,Wunderground v.1.15,2013-03-08 21:05:00,
2013-03-08 16:15:00,57.2,26.0,30.14,NNW,327,6.0,10.0,30,0.00,,,0.00,Wunderground v.1.15,2013-03-08 21:15:00,
2013-03-08 16:25:00,57.5,26.3,30.14,WNW,299,6.0,7.0,30,0.00,,,0.00,Wunderground v.1.15,2013-03-08 21:25:00,
2013-03-08 16:35:00,57.4,27.7,30.14,NW,309,5.0,8.0,32,0.00,,,0.00,Wunderground v.1.15,2013-03-08 21:35:00,
2013-03-08 16:45:00,56.9,25.7,30.14,WNW,300,6.0,6.0,30,0.00,,,0.00,Wunderground v.1.15,2013-03-08 21:45:00,
2013-03-08 16:55:00,57.2,26.8,30.14,North,5,3.0,7.0,31,0.00,,,0.00,Wunderground v.1.15,2013-03-08 21:55:00,
2013-03-08 17:00:00,57.0,25.8,30.14,NNE,24,5.0,6.0,30,0.00,,,0.00,Wunderground v.1.15,2013-03-08 22:00:00,
2013-03-08 17:10:00,56.7,26.4,30.15,NW,318,6.0,6.0,31,0.00,,,0.00,Wunderground v.1.15,2013-03-08 22:10:00,
2013-03-08 17:20:00,56.6,26.3,30.15,NNE,14,5.0,5.0,31,0.00,,,0.00,Wunderground v.1.15,2013-03-08 22:20:00,
2013-03-08 17:30:00,56.4,26.1,30.15,NNE,13,6.0,6.0,31,0.00,,,0.00,Wunderground v.1.15,2013-03-08 22:30:00,
2013-03-08 17:40:00,56.3,26.0,30.15,NNE,22,5.0,10.0,31,0.00,,,0.00,Wunderground v.1.15,2013-03-08 22:40:00,
2013-03-08 17:50:00,56.1,26.6,30.15,North,360,3.0,4.0,32,0.00,,,0.00,Wunderground v.1.15,2013-03-08 22:50:00,
2013-03-08 17:55:00,55.9,26.4,30.15,North,350,3.0,4.0,32,0.00,,,0.00,Wunderground v.1.15,2013-03-08 22:55:00,
2013-03-08 18:04:00,55.5,26.8,30.15,NNE,26,1.0,3.0,33,0.00,,,0.00,Wunderground v.1.15,2013-03-08 23:04:00,
2013-03-08 18:10:00,55.2,27.3,30.15,North,5,1.0,8.0,34,0.00,,,0.00,Wunderground v.1.15,2013-03-08 23:10:00,
2013-03-08 18:15:00,54.9,26.3,30.15,NNE,24,2.0,8.0,33,0.00,,,0.00,Wunderground v.1.15,2013-03-08 23:15:00,
2013-03-08 18:20:00,54.7,27.6,30.15,North,355,2.0,2.0,35,0.00,,,0.00,Wunderground v.1.15,2013-03-08 23:20:00,
2013-03-08 18:30:00,54.2,27.1,30.16,NNW,338,0.0,0.0,35,0.00,,,0.00,Wunderground v.1.15,2013-03-08 23:30:00,
2013-03-08 18:40:00,53.7,27.4,30.16,North,5,1.0,1.0,36,0.00,,,0.00,Wunderground v.1.15,2013-03-08 23:40:00,
2013-03-08 18:50:00,53.4,27.8,30.17,NNW,343,0.0,0.0,37,0.00,,,0.00,Wunderground v.1.15,2013-03-08 23:50:00,
2013-03-08 19:00:00,53.0,28.0,30.17,NW,313,0.0,1.0,38,0.00,,,0.00,Wunderground v.1.15,2013-03-09 00:00:00,
2013-03-08 19:10:00,52.5,27.6,30.17,NW,311,0.0,0.0,38,0.00,,,0.00,Wunderground v.1.15,2013-03-09 00:10:00,
2013-03-08 19:20:00,52.1,29.1,30.17,NW,311,0.0,0.0,41,0.00,,,0.00,Wunderground v.1.15,2013-03-09 00:20:00,
2013-03-08 19:25:00,51.9,29.5,30.18,NW,311,0.0,0.0,42,0.00,,,0.00,Wunderground v.1.15,2013-03-09 00:25:00,
2013-03-08 19:35:00,51.4,29.1,30.18,NW,309,0.0,0.0,42,0.00,,,0.00,Wunderground v.1.15,2013-03-09 00:35:00,
2013-03-08 19:40:00,51.2,28.9,30.18,WNW,300,0.0,0.0,42,0.00,,,0.00,Wunderground v.1.15,2013-03-09 00:40:00,
2013-03-08 19:50:00,50.9,28.6,30.18,WNW,300,0.0,0.0,42,0.00,,,0.00,Wunderground v.1.15,2013-03-09 00:50:00,
2013-03-08 19:55:00,50.7,30.7,30.18,WNW,300,0.0,0.0,46,0.00,,,0.00,Wunderground v.1.15,2013-03-09 00:55:00,
2013-03-08 20:05:00,50.3,29.7,30.19,WNW,300,0.0,0.0,45,0.00,,,0.00,Wunderground v.1.15,2013-03-09 01:05:00,
2013-03-08 20:10:00,49.9,29.9,30.19,WNW,300,0.0,0.0,46,0.00,,,0.00,Wunderground v.1.15,2013-03-09 01:10:00,
2013-03-08 20:19:00,49.4,32.0,30.19,WNW,300,0.0,0.0,51,0.00,,,0.00,Wunderground v.1.15,2013-03-09 01:19:00,
2013-03-08 20:25:00,49.0,30.7,30.20,WNW,300,0.0,0.0,49,0.00,,,0.00,Wunderground v.1.15,2013-03-09 01:25:00,
2013-03-08 20:35:00,48.6,29.3,30.20,WNW,300,0.0,0.0,47,0.00,,,0.00,Wunderground v.1.15,2013-03-09 01:35:00,
2013-03-08 20:45:00,48.3,30.0,30.20,WNW,300,0.0,0.0,49,0.00,,,0.00,Wunderground v.1.15,2013-03-09 01:45:00,
2013-03-08 20:55:00,48.0,30.2,30.21,WNW,300,0.0,0.0,50,0.00,,,0.00,Wunderground v.1.15,2013-03-09 01:55:00,
2013-03-08 21:05:00,47.9,30.1,30.21,WNW,298,0.0,0.0,50,0.00,,,0.00,Wunderground v.1.15,2013-03-09 02:05:00,
2013-03-08 21:15:00,47.8,30.0,30.22,NW,309,0.0,1.0,50,0.00,,,0.00,Wunderground v.1.15,2013-03-09 02:15:00,
2013-03-08 21:24:00,47.6,29.9,30.22,WNW,292,1.0,1.0,50,0.00,,,0.00,Wunderground v.1.15,2013-03-09 02:24:00,
2013-03-08 21:30:00,47.6,30.3,30.22,WNW,292,0.0,0.0,51,0.00,,,0.00,Wunderground v.1.15,2013-03-09 02:30:00,
2013-03-08 21:40:00,47.4,30.6,30.23,NW,309,1.0,1.0,52,0.00,,,0.00,Wunderground v.1.15,2013-03-09 02:40:00,
2013-03-08 21:45:00,47.4,30.2,30.24,WNW,298,1.0,1.0,51,0.00,,,0.00,Wunderground v.1.15,2013-03-09 02:45:00,
2013-03-08 21:55:00,47.4,30.2,30.25,WNW,298,1.0,1.0,51,0.00,,,0.00,Wunderground v.1.15,2013-03-09 02:55:00,
2013-03-08 22:00:00,47.4,30.2,30.25,WNW,296,1.0,1.0,51,0.00,,,0.00,Wunderground v.1.15,2013-03-09 03:00:00,
2013-03-08 22:10:00,47.3,30.1,30.25,NW,310,2.0,2.0,51,0.00,,,0.00,Wunderground v.1.15,2013-03-09 03:10:00,
2013-03-08 22:15:00,47.2,30.0,30.25,NW,311,1.0,2.0,51,0.00,,,0.00,Wunderground v.1.15,2013-03-09 03:15:00,
2013-03-08 22:25:00,47.2,30.0,30.25,WNW,301,1.0,2.0,51,0.00,,,0.00,Wunderground v.1.15,2013-03-09 03:25:00,
2013-03-08 22:30:00,47.2,30.0,30.24,NW,324,1.0,1.0,51,0.00,,,0.00,Wunderground v.1.15,2013-03-09 03:30:00,
2013-03-08 22:40:00,47.0,29.8,30.24,NW,311,0.0,0.0,51,0.00,,,0.00,Wunderground v.1.15,2013-03-09 03:40:00,
2013-03-08 22:50:00,46.9,30.2,30.25,NW,309,1.0,1.0,52,0.00,,,0.00,Wunderground v.1.15,2013-03-09 03:50:00,
2013-03-08 23:00:00,46.8,30.1,30.25,NW,304,1.0,1.0,52,0.00,,,0.00,Wunderground v.1.15,2013-03-09 04:00:00,
2013-03-08 23:10:00,46.6,30.4,30.25,WNW,302,1.0,3.0,53,0.00,,,0.00,Wunderground v.1.15,2013-03-09 04:10:00,
2013-03-08 23:20:00,46.4,30.2,30.25,WNW,302,1.0,2.0,53,0.00,,,0.00,Wunderground v.1.15,2013-03-09 04:20:00,
2013-03-08 23:30:00,46.1,30.4,30.25,NW,313,1.0,1.0,54,0.00,,,0.00,Wunderground v.1.15,2013-03-09 04:30:00,
2013-03-08 23:40:00,45.9,30.2,30.25,NW,309,0.0,0.0,54,0.00,,,0.00,Wunderground v.1.15,2013-03-09 04:40:00,
2013-03-08 23:45:00,45.8,30.5,30.25,NW,321,0.0,3.0,55,0.00,,,0.00,Wunderground v.1.15,2013-03-09 04:45:00,
2013-03-08 23:54:00,45.6,30.8,30.25,NW,311,0.0,0.0,56,0.00,,,0.00,Wunderground v.1.15,2013-03-09 04:54:00,